Regional Weather Roundup
Issued by NWS

Home | Current Version | Previous Version | Graphics & Text | Print | Product List | Glossary On
Versions: 1 2 3 4 5 6 7 8 9 10 11 12 13 14 15 16 17 18 19 20 21 22 23 24 25 26 27 28 29 30 31 32 33 34 35 36 37 38 39 40 41 42 43 44 45 46 47 48 49 50
000
ASUS43 KLSX 061257
RWRMO

WEATHER SUMMARY FOR MISSOURI
NATIONAL WEATHER SERVICE SPRINGFIELD MO
800 AM CDT FRI MAY 06 2016

NOTE: "FAIR" INDICATES FEW OR NO CLOUDS BELOW 12,000 FEET WITH NO
       SIGNIFICANT WEATHER AND/OR OBSTRUCTIONS TO VISIBILITY.
       CURRENT SKY AND/OR WEATHER CONDITIONS ARE NOT AVAILABLE FOR
       CHILLICOTHE AND FARMINGTON.

MOZ001>031-035>038-043-044-053-054-061400-
...NORTHERN AND WESTERN MISSOURI...

CITY           SKY/WX    TMP DP  RH WIND       PRES   REMARKS
KANSAS CTY INT SUNNY     57  44  62 S7        30.07S
LEE`S SUMMIT   SUNNY     59  40  49 SW7       30.09R
ST JOSEPH      SUNNY     55  49  80 S3        30.07R
CHILLICOTHE      N/A     58  44  60 S3        30.07S

$$
MOZ066>068-077>081-088>096-101>105-061400-
...SOUTHWEST MISSOURI...

CITY           SKY/WX    TMP DP  RH WIND       PRES   REMARKS
SPRINGFIELD    SUNNY     52  42  69 S3        30.11R
JOPLIN         SUNNY     55  44  66 CALM      30.11R
BRANSON        SUNNY     50  39  66 CALM      30.13R

$$
MOZ032>034-039>042-045>050-055>058-069>072-061400-
...CENTRAL MISSOURI...

CITY           SKY/WX    TMP DP  RH WIND       PRES   REMARKS
COLUMBIA       NOT AVBL
JEFFERSON CITY SUNNY     49  44  83 CALM      30.10R
ROLLA          SUNNY     51  42  71 SW8       30.09R
SEDALIA        SUNNY     55  44  66 SW8       30.10R
WARRENSBURG    SUNNY     52  43  71 CALM      30.09S

$$
MOZ051-052-059>065-061400-
...EAST CENTRAL MISSOURI...

CITY           SKY/WX    TMP DP  RH WIND       PRES   REMARKS
ST LOUIS INTL  SUNNY     56  45  66 W5        30.09R

$$
MOZ072>076-082>087-097>100-106>115-061400-
...SOUTH CENTRAL AND SOUTHEAST MISSOURI...

CITY           SKY/WX    TMP DP  RH WIND       PRES   REMARKS
CAPE GIRARDEAU SUNNY     51  46  83 CALM      30.09R
POPLAR BLUFF   SUNNY     53  45  74 NW6       30.10R
WEST PLAINS    SUNNY     54  42  64 W5        30.12S

$$



USA.gov is the U.S. government's official web portal to all federal, state and local government web resources and services.